[[{"header":{"parameterUnit":"m.s-1","parameterCategory":1,"la1":30.2991,"la2":30.254,"lo1":-89.0895,"lo2":-89.0444,"dy":0.0017,"dx":0.0017,"nx":28,"ny":28,"refTime":"2024-03-11T03:00:00:Z","depth":0,"parameterNumber":2,"parameterNumberName":"U-component_of_WINDS"},"data":[0,0,0,0,0,0,0,0,0,0,0,0,0,0,0,0,0,0,0,0,0,0,0,0,0,0,0,0,0,0,0,0,0,0,0,0,0,0,0,0,0,0,0,0,0,0,0,0,0,0,0,0,0,0,0,0,0,0,-1.6378,-1.6378,0,-1.634,-1.634,-1.634,-1.6238,-1.6236,-1.6233,-1.6231,-1.6196,-1.6197,-1.6198,0,0,0,0,0,0,0,0,0,0,0,0,0,-1.6367,-1.6368,-1.6378,-1.6378,-1.6377,-1.6341,-1.634,-1.6339,-1.6238,-1.6236,-1.6233,-1.623,-1.6195,-1.6196,-1.6198,0,0,0,0,0,0,0,0,0,0,0,0,0,-1.6355,-1.6368,-1.6379,-1.6322,-1.6317,-1.6341,-1.634,-1.6339,-1.6239,-1.6236,-1.6232,-1.6229,-1.6195,-1.6196,-1.6198,-1.6274,0,0,-1.6203,-1.6204,0,0,0,0,0,0,0,0,-1.6356,-1.6356,-1.6331,-1.6326,-1.632,-1.629,-1.6323,-1.6317,-1.624,-1.6269,-1.6231,-1.6228,-1.623,-1.6228,-1.6229,-1.6272,-1.627,-1.6203,-1.6204,-1.6205,-1.6205,0,0,0,0,0,0,0,-1.6357,-1.6357,-1.6363,-1.6331,-1.6324,-1.63,-1.6295,-1.6321,-1.6268,-1.6266,-1.6258,-1.6255,-1.6226,-1.6227,-1.6227,-1.627,-1.6203,-1.6204,-1.6205,-1.6206,-1.6375,-1.6379,0,0,0,0,0,0,-1.6365,-1.6358,-1.6365,-1.6362,-1.633,-1.6303,-1.6297,-1.6303,-1.6268,-1.6259,-1.6258,-1.6251,-1.6226,-1.6225,-1.6225,-1.6312,-1.6205,-1.6206,-1.6207,-1.6372,-1.6376,-1.638,0,0,0,0,0,0,-1.6365,-1.6367,-1.6366,-1.6358,-1.6356,-1.6307,-1.6315,-1.6304,-1.6305,-1.6262,-1.6252,-1.6268,-1.6224,-1.6223,-1.6263,-1.631,-1.6207,-1.6208,-1.6368,-1.6373,-1.6378,-1.6487,0,0,0,0,0,0,-1.6365,-1.6367,-1.6395,-1.6359,-1.6357,-1.6403,-1.6318,-1.6306,-1.6308,-1.6298,-1.6269,-1.6261,-1.6221,-1.6261,-1.6264,-1.631,-1.621,-1.6363,-1.637,-1.6376,-1.6479,-1.6495,-1.6509,0,0,0,0,0,-1.6365,-1.6427,-1.6397,-1.6398,-1.639,-1.6406,-1.6405,-1.6356,-1.6312,-1.634,-1.6312,-1.6262,-1.6304,-1.6266,-1.6269,-1.6316,-1.636,-1.6368,-1.6376,-1.6472,-1.6492,-1.6509,0,0,0,0,0,0,-1.647,-1.6421,-1.6387,-1.6439,-1.6427,-1.6389,-1.6422,-1.6379,-1.638,-1.6371,-1.6312,-1.6306,-1.6355,-1.6339,-1.6297,-1.6388,-1.6324,-1.6333,-1.6396,-1.6415,-1.643,-1.6432,-1.6211,0,0,0,0,0,-1.6499,-1.6515,-1.6472,-1.6522,-1.6518,-1.6472,-1.6477,-1.6441,-1.6427,-1.6421,-1.6396,-1.6386,-1.6397,-1.6405,-1.6412,-1.6477,-1.647,-1.6511,-1.6526,-1.6539,-1.6547,-1.6581,-1.6599,-1.6406,-1.6406,-1.6406,0,0,-1.6559,-1.6534,-1.6548,-1.6543,-1.6529,-1.6548,-1.6468,-1.6491,-1.6505,-1.6425,-1.646,-1.6443,-1.6427,-1.6479,-1.6501,-1.6468,-1.6599,-1.6549,-1.6559,-1.6561,-1.6591,-1.661,-1.6626,-1.6411,-1.641,-1.6409,0,0,-1.6678,-1.6661,-1.6701,-1.669,-1.667,-1.6639,-1.6649,-1.6618,-1.6602,-1.6637,-1.6578,-1.6594,-1.6614,-1.6606,-1.6604,-1.6723,-1.6677,-1.6727,-1.6806,-1.684,-1.6855,-1.6869,-1.6912,-1.6928,-1.6735,-1.6736,-1.6736,0,-1.6755,-1.678,-1.6727,-1.6755,-1.6755,-1.6683,-1.6724,-1.6716,-1.6701,-1.6703,-1.6666,-1.669,-1.6675,-1.6725,-1.6754,-1.6755,-1.6765,-1.6729,-1.6857,-1.687,-1.6882,-1.6922,-1.6938,-1.6742,-1.6741,-1.674,-1.674,0,-1.6877,-1.6896,-1.6931,-1.6917,-1.6921,-1.6956,-1.6909,-1.692,-1.6885,-1.6858,-1.6896,-1.6875,-1.6877,-1.6886,-1.6852,-1.6933,-1.6912,-1.6868,-1.6802,-1.6907,-1.6944,-1.6959,-1.6751,-1.6749,-1.6747,-1.6745,0,0,-1.7059,-1.7017,-1.7031,-1.7024,-1.6999,-1.7013,-1.7046,-1.7047,-1.7058,-1.7051,-1.7077,-1.7097,-1.7055,-1.7053,-1.7018,-1.7048,-1.7144,-1.6999,-1.6997,-1.7027,-1.7233,-1.7267,-1.7285,-1.7114,-1.7117,-1.7119,-1.7234,0,-1.7172,-1.7222,-1.7177,-1.7237,-1.7255,-1.7188,-1.7216,-1.7205,-1.7181,-1.7194,-1.7168,-1.7183,-1.7127,-1.7126,-1.7152,-1.7127,-1.7185,-1.7118,-1.7139,-1.714,-1.7144,-1.7304,-1.734,-1.745,-1.7248,-1.725,-1.7252,0,-1.7309,-1.7308,-1.737,-1.7342,-1.7348,-1.7374,-1.7372,-1.7385,-1.7371,-1.7352,-1.7352,-1.7308,-1.7339,-1.7276,-1.7319,-1.7274,-1.7281,-1.727,-1.7273,-1.7273,-1.7202,-1.7309,-1.7483,-1.75,-1.7274,-1.7273,-1.7271,0,-1.7436,-1.745,-1.7489,-1.7486,-1.7454,-1.7474,-1.7462,-1.7445,-1.745,-1.745,-1.7453,-1.7457,-1.7459,-1.7464,-1.7423,-1.738,-1.7472,-1.7404,-1.7458,-1.7459,-1.7479,-1.7478,-1.7657,-1.7484,-1.7484,-1.7483,-1.7483,0,-1.7567,-1.7607,-1.7546,-1.757,-1.7615,-1.7563,-1.7609,-1.759,-1.7576,-1.7596,-1.7539,-1.756,-1.7505,-1.7521,-1.749,-1.7531,-1.7532,-1.7519,-1.751,-1.7523,-1.7525,-1.7526,-1.7518,-1.7488,-1.7487,-1.7486,-1.7485,0,-1.7716,-1.7676,-1.7715,-1.7682,-1.7675,-1.7709,-1.7681,-1.7703,-1.7677,-1.7704,-1.7707,-1.7666,-1.7681,-1.7642,-1.7651,-1.763,-1.7689,-1.7668,-1.7694,-1.7687,-1.7743,-1.7739,-1.7929,-1.7952,-1.7764,-1.7766,-1.7767,0,-1.7801,-1.7831,-1.7801,-1.7811,-1.7802,-1.7817,-1.7822,-1.7773,-1.778,-1.7768,-1.7792,-1.7803,-1.7808,-1.7837,-1.7809,-1.7816,-1.7795,-1.7861,-1.7796,-1.7809,-1.7796,-1.7795,-1.7798,-1.7875,-1.7877,-1.7879,-1.788,0,-1.7957,-1.7937,-1.7945,-1.7947,-1.7954,-1.7954,-1.7949,-1.796,-1.7908,-1.792,-1.7935,-1.7939,-1.795,-1.7961,-1.7963,-1.7952,-1.7909,-1.7902,-1.7914,-1.7928,-1.7942,-1.7936,-1.7731,-1.7897,-1.7895,-1.7894,-1.7893,-1.7893,-1.8077,-1.8101,-1.8084,-1.8096,-1.8087,-1.8085,-1.8104,-1.8081,-1.8092,-1.8096,-1.8067,-1.8088,-1.8076,-1.8073,-1.8067,-1.8084,-1.8054,-1.8073,-1.8077,-1.8083,-1.8092,-1.794,-1.8084,-1.8084,-1.8083,-1.8083,-1.8083,0,-1.823,-1.8217,-1.8228,-1.8224,-1.8233,-1.8191,-1.8185,-1.8196,-1.8215,-1.8207,-1.8214,-1.8232,-1.8244,-1.8218,-1.8226,-1.8245,-1.8225,-1.8248,-1.8246,-1.8245,-1.8118,-1.8106,-1.8264,-1.8264,-1.8264,-1.8264,-1.8264,-1.8264,-1.8311,-1.8349,-1.8327,-1.8362,-1.8348,-1.8368,-1.8368,-1.8367,-1.836,-1.8382,-1.8392,-1.8374,-1.8359,-1.8366,-1.8375,-1.8367,-1.8373,-1.8404,-1.8389,-1.8271,-1.8253,-1.8237,-1.8225,-1.8405,-1.8406,-1.8514,-1.8515,-1.8516]},{"header":{"parameterUnit":"m.s-1","parameterCategory":1,"la1":30.2991,"la2":30.254,"lo1":-89.0895,"lo2":-89.0444,"dy":0.0017,"dx":0.0017,"nx":28,"ny":28,"refTime":"2024-03-11T03:00:00:Z","depth":0,"parameterNumber":3,"parameterNumberName":"V-component_of_WINDS"},"data":[0,0,0,0,0,0,0,0,0,0,0,0,0,0,0,0,0,0,0,0,0,0,0,0,0,0,0,0,0,0,0,0,0,0,0,0,0,0,0,0,0,0,0,0,0,0,0,0,0,0,0,0,0,0,0,0,0,0,1.9402,1.9402,0,1.9382,1.9381,1.9381,1.9407,1.9408,1.9409,1.941,1.9383,1.9381,1.938,0,0,0,0,0,0,0,0,0,0,0,0,0,1.9457,1.9456,1.9402,1.9402,1.9401,1.9382,1.9381,1.9381,1.9407,1.9408,1.9409,1.941,1.9383,1.9381,1.938,0,0,0,0,0,0,0,0,0,0,0,0,0,1.9434,1.9455,1.9402,1.9412,1.9413,1.9382,1.9381,1.9381,1.9407,1.9408,1.941,1.9411,1.9384,1.9382,1.9379,1.9335,0,0,1.9372,1.9371,0,0,0,0,0,0,0,0,1.9436,1.9432,1.9411,1.9411,1.9412,1.9399,1.9391,1.9365,1.9406,1.9409,1.941,1.9412,1.9386,1.9384,1.9377,1.9334,1.9333,1.9372,1.937,1.9369,1.9368,0,0,0,0,0,0,0,1.9437,1.9433,1.9394,1.941,1.9411,1.9416,1.9414,1.9386,1.9389,1.9409,1.9411,1.9408,1.9387,1.9379,1.9376,1.9332,1.9372,1.9369,1.9368,1.9367,1.9251,1.925,0,0,0,0,0,0,1.9438,1.9434,1.9394,1.9393,1.9428,1.9414,1.9412,1.9401,1.939,1.939,1.9407,1.941,1.9382,1.9379,1.9375,1.9322,1.9369,1.9367,1.9365,1.9253,1.9251,1.9249,0,0,0,0,0,0,1.9439,1.9434,1.9395,1.9414,1.941,1.9411,1.9399,1.94,1.9392,1.9389,1.9389,1.9399,1.9383,1.9379,1.9345,1.9322,1.9366,1.9363,1.9255,1.9252,1.925,1.9216,0,0,0,0,0,0,1.9441,1.9435,1.9419,1.9414,1.9409,1.9367,1.9398,1.9399,1.9389,1.9392,1.9381,1.938,1.9384,1.9349,1.9343,1.9319,1.9362,1.9257,1.9254,1.9251,1.9219,1.9213,1.9207,0,0,0,0,0,1.9443,1.9409,1.9418,1.9413,1.939,1.9366,1.9362,1.9369,1.9387,1.937,1.9368,1.9381,1.9326,1.9345,1.9339,1.9314,1.9258,1.9255,1.9251,1.9222,1.9214,1.9207,0,0,0,0,0,0,1.9409,1.9409,1.9419,1.9383,1.9374,1.937,1.9349,1.9361,1.9345,1.9349,1.9356,1.9353,1.9317,1.9313,1.9334,1.927,1.9295,1.929,1.9274,1.9267,1.9261,1.9262,1.936,0,0,0,0,0,1.9398,1.9381,1.938,1.9348,1.9344,1.9348,1.9337,1.9344,1.9334,1.933,1.9325,1.9314,1.9294,1.9281,1.9262,1.9219,1.9216,1.9199,1.9193,1.9188,1.9183,1.9158,1.915,1.9237,1.9238,1.9238,0,0,1.9374,1.9372,1.936,1.9342,1.9336,1.9316,1.9344,1.9321,1.9306,1.9326,1.9294,1.929,1.9278,1.924,1.9222,1.9234,1.9158,1.9183,1.918,1.9177,1.9154,1.9146,1.9138,1.9235,1.9235,1.9236,0,0,1.932,1.9317,1.929,1.9284,1.9276,1.9278,1.9272,1.9266,1.9265,1.9234,1.9249,1.9229,1.9195,1.9186,1.9176,1.9119,1.913,1.9113,1.9081,1.9057,1.905,1.9044,1.9022,1.9014,1.9108,1.9108,1.9108,0,1.929,1.9262,1.9274,1.925,1.9241,1.9262,1.9233,1.9226,1.9211,1.9203,1.9218,1.9176,1.9169,1.9128,1.9114,1.9107,1.9097,1.9113,1.9051,1.9044,1.9039,1.9018,1.901,1.9106,1.9106,1.9107,1.9107,0,1.9225,1.9206,1.9184,1.9172,1.9161,1.9135,1.9141,1.9128,1.9136,1.9136,1.9103,1.9096,1.9077,1.9068,1.9074,1.9027,1.9035,1.905,1.9074,1.9028,1.9008,1.9001,1.9103,1.9104,1.9105,1.9105,0,0,1.9147,1.9143,1.9134,1.9129,1.9122,1.9106,1.908,1.9063,1.9051,1.904,1.9018,1.8989,1.9003,1.8993,1.8998,1.8978,1.8931,1.8995,1.8995,1.8982,1.8877,1.8864,1.8855,1.8939,1.8938,1.8937,1.8877,0,1.9091,1.9049,1.906,1.9017,1.8998,1.9017,1.8995,1.8987,1.8987,1.897,1.8969,1.8948,1.8969,1.8963,1.8944,1.8941,1.891,1.8946,1.8915,1.8914,1.8916,1.8845,1.8831,1.8775,1.887,1.8869,1.8868,0,1.902,1.9009,1.8965,1.8961,1.8954,1.8934,1.8919,1.8903,1.8893,1.8895,1.8884,1.8894,1.8866,1.8893,1.8854,1.8878,1.8867,1.8864,1.8862,1.8857,1.8886,1.8836,1.8758,1.8749,1.8856,1.8857,1.8858,0,1.8965,1.8939,1.891,1.8905,1.89,1.8885,1.8882,1.8875,1.8863,1.885,1.8842,1.8825,1.8815,1.88,1.8804,1.8824,1.8764,1.8791,1.8762,1.8762,1.8747,1.8747,1.8663,1.8743,1.8743,1.8743,1.8743,0,1.8901,1.8873,1.8885,1.8866,1.8835,1.8847,1.8815,1.8814,1.8807,1.8787,1.8803,1.8783,1.8791,1.8772,1.8775,1.8741,1.8737,1.8735,1.8736,1.8733,1.8732,1.8723,1.8726,1.8741,1.8741,1.8742,1.8742,0,1.8833,1.8841,1.8809,1.8808,1.8807,1.8784,1.8782,1.8763,1.8766,1.874,1.8735,1.8737,1.8715,1.8719,1.8693,1.8695,1.8653,1.8659,1.8656,1.8657,1.8627,1.8629,1.8532,1.8519,1.8609,1.8609,1.8608,0,1.879,1.877,1.8767,1.8756,1.8752,1.8734,1.8723,1.8734,1.8722,1.8711,1.8693,1.8673,1.8657,1.862,1.8618,1.8599,1.8603,1.8571,1.86,1.8598,1.86,1.8601,1.8598,1.8564,1.8563,1.8563,1.8562,0,1.8713,1.8718,1.8704,1.869,1.8678,1.8667,1.8658,1.8647,1.8657,1.8643,1.8621,1.8609,1.8585,1.8564,1.8546,1.854,1.8551,1.8553,1.8545,1.854,1.8539,1.8537,1.8638,1.8555,1.8555,1.8556,1.8556,1.8557,1.8655,1.8637,1.8633,1.8616,1.8611,1.8602,1.8584,1.8586,1.8569,1.8551,1.8558,1.8533,1.8524,1.8501,1.8494,1.8473,1.8485,1.8474,1.847,1.8467,1.8462,1.8544,1.847,1.8471,1.8471,1.8471,1.8471,0,1.8577,1.8576,1.856,1.8548,1.8534,1.855,1.854,1.8527,1.8506,1.8497,1.8482,1.8457,1.8437,1.8434,1.8415,1.8398,1.8403,1.8393,1.8393,1.8391,1.8454,1.8462,1.8389,1.8389,1.8389,1.8389,1.8389,1.8389,1.8535,1.8505,1.851,1.8477,1.8475,1.8453,1.8446,1.8437,1.8431,1.8403,1.8387,1.8387,1.838,1.836,1.8341,1.8341,1.8332,1.8319,1.832,1.8378,1.8387,1.8394,1.8402,1.8317,1.8317,1.8259,1.8258,1.8258]}]]